Regional Weather Roundup
Issued by NWS

Home | Current Version | Previous Version | Text Only | Print | Product List | Glossary Off
Versions: 1 2 3 4 5 6 7 8 9 10 11 12 13 14 15 16 17 18 19 20 21 22 23 24 25 26 27 28 29 30 31 32 33 34 35 36 37 38 39 40 41 42 43 44 45 46 47 48 49 50

000
ASUS43 KDMX 092306
RWRIA

WEATHER ROUNDUP FOR IOWA
NATIONAL WEATHER SERVICE DES MOINES IA
500 PM CST FRI DEC 09 2016

NOTE: "FAIR" INDICATES FEW OR NO CLOUDS BELOW 12,000 FEET WITH NO
SIGNIFICANT WEATHER AND/OR OBSTRUCTIONS TO VISIBILITY.

* - THESE STATIONS ARE NOT NWS STATIONS...THUS NOT UNDER NWS
QUALITY CONTROL.  THEY ALSO DO NOT REPORT WEATHER SUCH
AS PRECIPITATION OR FOG.

IAZ001>003-012>014-020>022-031>034-043>046-100000-
   NORTHWEST IOWA

CITY           SKY/WX    TMP DP  RH WIND       PRES   REMARKS
CARROLL *      CLOUDY    19  10  68 W6        30.51S WCI  11
CHEROKEE *     CLOUDY    17  10  75 CALM      30.50F
DENISON *      CLOUDY    19  10  68 CALM      30.49S
LE MARS *      MOCLDY    18   9  68 S5        30.51S WCI  11
ORANGE CITY *  CLOUDY    16  10  79 CALM      30.48S
SHELDON *      CLOUDY    16   7  67 CALM      30.48R
SIOUX CITY     CLOUDY    19   7  59 SE7       30.51F WCI  10
SPENCER        CLOUDY    17   7  64 W12       30.48F WCI   4
STORM LAKE *   CLOUDY    16   9  73 CALM      30.48F
$$

IAZ055>058-069>071-079>083-090>094-100000-
   SOUTHWEST IOWA

CITY           SKY/WX    TMP DP  RH WIND       PRES   REMARKS
ATLANTIC *     CLOUDY    21  10  63 CALM      30.51F
AUDUBON *      CLOUDY    21  10  63 CALM      30.51S
CLARINDA *     CLOUDY    23  12  63 CALM      30.55S
COUNCIL BLFS * CLOUDY    21  10  63 SE6       30.50S WCI  14
CRESTON *      CLOUDY    21  10  63 CALM      30.52F
HARLAN  *      CLOUDY    21  10  63 CALM      30.55S
LAMONI         CLOUDY    23  10  57 NW3       30.52F
RED OAK *      CLOUDY    23  12  63 CALM      30.53S
SHENANDOAH *   CLOUDY    23  12  63 SE5       30.53F WCI  17
$$

IAZ047>049-059>061-072>074-084-100000-
   CENTRAL IOWA

CITY           SKY/WX    TMP DP  RH WIND       PRES   REMARKS
AMES           CLOUDY    21  12  68 W6        30.53F WCI  13
ANKENY *       CLOUDY    21   9  58 W5        30.55S WCI  15
BOONE *        CLOUDY    19   9  63 NW5       30.51S WCI  13
CHARITON *     CLOUDY    21   9  58 W5        30.53S WCI  15
DES MOINES     CLOUDY    22  10  60 CALM      30.53F
GRINNELL*      PTCLDY    19  11  72 CALM      30.53F
KNOXVILLE *    CLOUDY    21   9  58 W5        30.53S WCI  15
MARSHALLTOWN   CLEAR     18  11  74 W6        30.52F WCI  10
NEWTON *       CLOUDY    21  10  63 W3        30.52F
PELLA *        CLOUDY    21  11  64 CALM      30.56S
PERRY *          N/A     22  11  62 W7        30.52F WCI  14
$$

IAZ004>006-015-016-023>025-035-036-100000-
   NORTH CENTRAL IOWA

CITY           SKY/WX    TMP DP  RH WIND       PRES   REMARKS
ALGONA *       MOCLDY    19  10  68 W6        30.49F WCI  11
CLARION *      CLOUDY    19  10  68 NW5       30.51S WCI  13
ESTHERVILLE    CLOUDY    17   8  67 W5        30.48F WCI  10
FORT DODGE *   CLOUDY    19   9  63 W5        30.51F WCI  13
MASON CITY     CLOUDY    19   9  65 W8        30.51F WCI   9
FOREST CITY *  CLOUDY    19  10  68 W3        30.49F
WEBSTER CITY * CLOUDY    19  10  68 W7        30.49F WCI  10
IOWA FALLS *     N/A     20  13  75 W7        30.52S WCI  11
$$

IAZ007>011-017>019-026>030-037>042-050>054-066-100000-
   NORTHEAST IOWA

CITY           SKY/WX    TMP DP  RH WIND       PRES   REMARKS
CEDAR RAPIDS   CLEAR     15  12  88 NW6       30.53F WCI   6
CHARLES CITY * CLOUDY    18  12  79 CALM      30.51S
CLINTON *      PTCLDY    20  14  77 NW7       30.55R WCI  11
DECORAH *      CLOUDY    14  10  85 W5        30.49S WCI   6
DUBUQUE        CLEAR     15  10  80 W6        30.51S WCI   6
MONTICELLO *   PTCLDY    19  12  73 W5        30.53F WCI  13
OELWEIN *      MOCLDY    14  10  85 NW5       30.52S WCI   6
WATERLOO       MOCLDY    18  11  74 CALM      30.53S
$$

IAZ064-065-067-068-078-100000-
   EAST CENTRAL IOWA

CITY           SKY/WX    TMP DP  RH WIND       PRES   REMARKS
DAVENPORT      CLOUDY    21  13  71 W10       30.55R WCI  10
IOWA CITY      CLEAR     20  12  71 W5        30.57F WCI  13
MUSCATINE *    CLOUDY    19  12  73 W6        30.58S WCI  11
QUAD CITIES    PTCLDY    21  12  68 W7        30.56R WCI  12
$$

IAZ062-063-075>077-085>089-095>099-100000-
   SOUTHEAST IOWA

CITY           SKY/WX    TMP DP  RH WIND       PRES   REMARKS
BURLINGTON     PTCLDY    21  14  74 W6        30.56S WCI  13
FAIRFIELD *    CLOUDY    21  10  63 W3        30.55F
FORT MADISON * MOCLDY    21  12  68 CALM      30.57S
KEOKUK *       MOCLDY    23  14  68 W5        30.56S WCI  17
OSKALOOSA *      N/A     20  11  69 W3        30.55S
CENTERVILLE *  MOCLDY    23   9  54 CALM      30.55S
OTTUMWA        CLOUDY    21   9  59 NW3       30.55S
WASHINGTON *   PTCLDY    19  12  73 NW7       30.57S WCI  10
$$

ABBREVIATIONS USED IN REMARKS
   TC - TEMPERATURES IN CELSIUS
  WCI - WIND CHILL INDEX
   HX - HEAT INDEX
  VSB - VISIBILITY
$$




USA.gov is the U.S. government's official web portal to all federal, state and local government web resources and services.